Location: *
(34.8620°S, 39.3380°E)
Time: 08:27:12
(UTC+00:00)

SAOCOM 1-B - Pass Details

Date: 29 May 2022
Orbit: 621 x 623 km, 97.9° (Epoch: 06 July)

Event Time Altitude Azimuth Distance (km) Brightness Sun altitude
Rises 15:23:47 0° 352° (N) 2,889 ? -12.9°
Reaches altitude 10° 15:26:07 10° 343° (NNW) 1,992 ? -13.4°
Maximum altitude 15:30:03 33° 278° (W) 1,051 ? -14.1°
Drops below altitude 10° 15:34:02 10° 212° (SSW) 2,019 ? -14.9°
Sets 15:36:26 0° 203° (SSW) 2,935 ? -15.4°
